TimePDT,TemperatureF,Dew PointF,Humidity,Sea Level PressureIn,VisibilityMPH,Wind Direction,Wind SpeedMPH,Gust SpeedMPH,PrecipitationIn,Events,Conditions,WindDirDegrees,DateUTC
12:51 AM,63.0,54.0,72,30.06,10.0,Calm,Calm,-,N/A,,Clear,0,2013-05-11 07:51:00
1:51 AM,63.0,54.0,72,30.05,10.0,Calm,Calm,-,N/A,,Clear,0,2013-05-11 08:51:00
2:51 AM,62.1,54.0,75,30.04,10.0,Calm,Calm,-,N/A,,Clear,0,2013-05-11 09:51:00
3:51 AM,62.1,54.0,75,30.03,9.0,Calm,Calm,-,N/A,,Clear,0,2013-05-11 10:51:00
4:51 AM,61.0,54.0,78,30.02,10.0,Calm,Calm,-,N/A,,Clear,0,2013-05-11 11:51:00
5:51 AM,60.1,53.1,78,30.02,9.0,Calm,Calm,-,N/A,,Clear,0,2013-05-11 12:51:00
6:51 AM,62.1,55.0,78,30.04,8.0,Calm,Calm,-,N/A,,Clear,0,2013-05-11 13:51:00
7:51 AM,66.0,55.0,68,30.04,7.0,Calm,Calm,-,N/A,,Clear,0,2013-05-11 14:51:00
8:51 AM,71.1,55.0,57,30.04,9.0,Calm,Calm,-,N/A,,Clear,0,2013-05-11 15:51:00
9:51 AM,75.0,54.0,48,30.04,10.0,Calm,Calm,-,N/A,,Clear,0,2013-05-11 16:51:00
10:51 AM,82.9,52.0,34,30.03,10.0,ESE,3.5,-,N/A,,Clear,120,2013-05-11 17:51:00
11:51 AM,88.0,51.1,28,30.02,10.0,Variable,3.5,-,N/A,,Clear,0,2013-05-11 18:51:00
12:51 PM,93.0,50.0,23,30.00,10.0,Calm,Calm,-,N/A,,Clear,0,2013-05-11 19:51:00
1:51 PM,98.1,39.0,13,29.98,10.0,South,8.1,-,N/A,,Clear,170,2013-05-11 20:51:00
2:51 PM,98.1,46.0,17,29.96,10.0,SSE,10.4,-,N/A,,Clear,160,2013-05-11 21:51:00
3:51 PM,96.1,46.0,18,29.95,10.0,West,8.1,-,N/A,,Clear,280,2013-05-11 22:51:00
4:51 PM,93.9,48.0,21,29.95,10.0,West,9.2,17.3,N/A,,Clear,270,2013-05-11 23:51:00
5:51 PM,91.0,43.0,19,29.95,10.0,WNW,11.5,17.3,N/A,,Clear,300,2013-05-12 00:51:00
6:51 PM,90.0,42.1,19,29.95,10.0,NW,3.5,-,N/A,,Clear,310,2013-05-12 01:51:00
7:51 PM,86.0,42.1,21,29.97,10.0,West,3.5,-,N/A,,Clear,260,2013-05-12 02:51:00
8:51 PM,82.9,44.1,25,29.99,10.0,WSW,4.6,-,N/A,,Clear,240,2013-05-12 03:51:00
9:51 PM,81.0,46.0,29,30.00,10.0,North,3.5,-,N/A,,Clear,350,2013-05-12 04:51:00
10:51 PM,73.9,53.1,48,30.01,10.0,SSE,4.6,-,N/A,,Clear,160,2013-05-12 05:51:00
11:51 PM,70.0,57.9,65,30.02,9.0,ESE,5.8,-,N/A,,Clear,110,2013-05-12 06:51:00